[Date Prev][Date Next][Thread Prev][Thread Next] - [Date Index][Thread Index][Author Index]

2 Line ISS Keps 4-1



ISS
1 25544U 98067A   04092.02342593  .00028304  00000-0  25760-3 0  4820
2 25544  51.6299 358.9344 0010523 343.3472 207.5459 15.67640805306202


----
Via the sarex mailing list at AMSAT.ORG courtesy of AMSAT-NA.
To unsubscribe, send "unsubscribe sarex" to Majordomo@amsat.org



AMSAT Top AMSAT Home